Greensboro, NC

12:14 AM EST on January 24, 2017 (GMT -0500)
Piedmont Triad International

Weather History for KGSO - April, 2012

Change the Weather History Date:

Wednesday, April 11, 2012

  Actual Average Record
Temperature  
Mean Temperature 46 °F 58 °F  
Max Temperature 55 °F 69 °F 91 °F (1930)
Min Temperature 37 °F 46 °F 25 °F (1960)
Degree Days  
Heating Degree Days 19 8  
Month to date heating degree days 73 105  
Since 1 July heating degree days 2701 3430  
Cooling Degree Days 0 1  
Month to date cooling degree days 8 10  
Year to date cooling degree days 37 15  
Moisture  
Dew Point 22 °F    
Average Humidity 39    
Maximum Humidity 50    
Minimum Humidity 28    
Precipitation  
Precipitation 0.00 in 0.12 in 2.69 in (1944)
Month to date precipitation 0.64 1.34  
Year to date precipitation 7.23 11.09  
Snow  
Snow 0.00 in 0.00 in T in (1950)
Month to date snowfall 0.0 0.1  
Since 1 July snowfall 1.6 7.6  
Snow Depth 0.00 in    
Sea Level Pressure  
Sea Level Pressure 30.01 in    
Wind  
Wind Speed 10 mph (NNW)    
Max Wind Speed 25 mph    
Max Gust Speed 33 mph    
Visibility 10 miles    
Events      
T = Trace of Precipitation, MM = Missing Value Source: NWS Daily Summary

Daily Weather History Graph

Daily Weather History Graph

Search for Another Location

Airport or City:

Trip Planner

Search our weather history database for the weather conditions in past years. The results will help you decide how hot, cold, wet, or windy it might be!

Date:

Astronomy

Apr. 11, 2012 Rise Set
Actual Time 6:51 AM EDT 7:50 PM EDT
Civil Twilight 6:25 AM EDT 8:16 PM EDT
Nautical Twilight 5:53 AM EDT 8:48 PM EDT
Astronomical Twilight 5:21 AM EDT 9:20 PM EDT
Moon 12:37 AM EDT (4/11) 10:44 AM EDT (4/11)
Length of Visible Light 13h 51m
Length of Day
12h 59m
Waning Gibbous, 69% of the Moon is Illuminated
Apr 11
Waning Gibbous
Apr 13
Last Quarter
Apr 21
New
Apr 29
First Quarter
May 5
Full

Hourly Weather History & Observations

Time (EDT) Temp. Windchill Dew Point Humidity Pressure Visibility Wind Dir Wind Speed Gust Speed Precip Events Conditions
12:54 AM 48.9 °F - 23.0 °F 36% 29.85 in 10.0 mi NW 6.9 mph - N/A   Partly Cloudy
1:54 AM 52.0 °F - 19.9 °F 28% 29.87 in 10.0 mi NNW 9.2 mph - N/A   Clear
2:54 AM 52.0 °F - 21.9 °F 31% 29.88 in 10.0 mi NW 13.8 mph - N/A   Clear
3:54 AM 48.0 °F - 26.1 °F 42% 29.91 in 10.0 mi NNW 10.4 mph - N/A   Clear
4:54 AM 46.0 °F 43.1 °F 25.0 °F 44% 29.92 in 10.0 mi NNW 5.8 mph - N/A   Clear
5:54 AM 44.1 °F 40.8 °F 25.0 °F 47% 29.95 in 10.0 mi North 5.8 mph - N/A   Clear
6:54 AM 42.1 °F - 25.0 °F 51% 29.97 in 10.0 mi Calm Calm - N/A   Clear
7:54 AM 45.0 °F 41.2 °F 25.0 °F 46% 29.98 in 10.0 mi NW 6.9 mph - N/A   Clear
8:54 AM 48.0 °F - 21.9 °F 36% 29.99 in 10.0 mi NW 16.1 mph - N/A   Clear
9:54 AM 50.0 °F - 21.0 °F 32% 30.00 in 10.0 mi NW 18.4 mph 26.5 mph N/A   Partly Cloudy
10:54 AM 51.1 °F - 21.9 °F 32% 30.01 in 10.0 mi NW 15.0 mph 32.2 mph N/A   Mostly Cloudy
11:54 AM 51.1 °F - 21.0 °F 31% 30.01 in 10.0 mi NNW 13.8 mph 20.7 mph N/A   Mostly Cloudy
12:54 PM 53.1 °F - 21.9 °F 30% 30.00 in 10.0 mi North 11.5 mph 20.7 mph N/A   Scattered Clouds
1:54 PM 52.0 °F - 19.9 °F 28% 30.01 in 10.0 mi NNW 16.1 mph 28.8 mph N/A   Mostly Cloudy
2:54 PM 52.0 °F - 19.9 °F 28% 30.01 in 10.0 mi NNW 12.7 mph 25.3 mph N/A   Mostly Cloudy
3:54 PM 52.0 °F - 19.9 °F 28% 30.01 in 10.0 mi NW 8.1 mph 21.9 mph N/A   Scattered Clouds
4:26 PM 53.6 °F - 21.2 °F 28% 30.02 in 10.0 mi NNW 13.8 mph 21.9 mph N/A   Scattered Clouds
4:54 PM 53.1 °F - 21.0 °F 29% 30.02 in 10.0 mi North 13.8 mph 20.7 mph N/A   Scattered Clouds
5:54 PM 51.1 °F - 21.0 °F 31% 30.05 in 10.0 mi NNW 11.5 mph 23.0 mph N/A   Scattered Clouds
6:54 PM 48.9 °F - 19.9 °F 32% 30.07 in 10.0 mi North 13.8 mph 24.2 mph N/A   Partly Cloudy
7:54 PM 46.0 °F 40.2 °F 19.9 °F 35% 30.09 in 10.0 mi North 12.7 mph 21.9 mph N/A   Partly Cloudy
8:54 PM 45.0 °F 42.6 °F 19.9 °F 37% 30.12 in 10.0 mi NNW 4.6 mph - N/A   Clear
9:54 PM 43.0 °F 37.7 °F 21.9 °F 43% 30.14 in 10.0 mi NW 9.2 mph - N/A   Clear
10:54 PM 39.0 °F 35.7 °F 23.0 °F 53% 30.14 in 10.0 mi NW 4.6 mph - N/A   Clear
11:54 PM 39.9 °F 34.5 °F 23.0 °F 51% 30.15 in 10.0 mi NNW 8.1 mph - N/A   Clear